Miller Place, New York, United States (11764)
Lat: 40.96N, Lon: 73W
Wx Zone: NYZ078
Local Info
Past Weather Observations for Today

NOTE: This archive is for the closest National Weather Service station to Miller Place. Information may differ from the station used for current weather conditions.

Click here for Long-term Archive

Time Weather Temperature Dewpoint Humidity Pressure Winds Precip Visibility
14:12
Overcast
Light Rain
46°F / 8°C 43°F / 6°C 87% 30.18 in
(1022 mb)
Variable 4.6 mph
(Variable 7 kph)
0.01 in
(0.25 mm)
4SM
13:56
Overcast
Light Rain
46°F / 8°C 43°F / 6°C 87% 30.18 in
(1022 mb)
SE 4.6 mph
(SE 7 kph)
0.02 in
(0.51 mm)
8SM
13:34
Overcast
Light Rain
46°F / 8°C 45°F / 7°C 93% 30.18 in
(1022 mb)
Variable 4.6 mph
(Variable 7 kph)
0.02 in
(0.51 mm)
8SM
13:06
Overcast
Light Rain
46°F / 8°C 45°F / 7°C 93% 30.18 in
(1022 mb)
SE 5.8 mph
(SE 9 kph)
0.00 in
(0.00 mm)
10SM
12:56
Overcast
Light Rain
46°F / 8°C 45°F / 7°C 93% 30.21 in
(1023 mb)
SE 4.6 mph
(SE 7 kph)
0.05 in
(1.27 mm)
9SM
12:22
Overcast
Light Rain
46°F / 8°C 45°F / 7°C 93% 30.21 in
(1023 mb)
Variable 6.9 mph
(Variable 11 kph)
0.04 in
(1.02 mm)
4SM
11:56
Overcast
Light Rain
48°F / 9°C 45°F / 7°C 87% 30.21 in
(1023 mb)
SE 5.8 mph
(SE 9 kph)
0.01 in
(0.25 mm)
6SM
11:37
Overcast
Light Rain
48°F / 9°C 45°F / 7°C 87% 30.21 in
(1023 mb)
SE 5.8 mph
(SE 9 kph)
0.01 in
(0.25 mm)
8SM
11:03
Overcast
Light Rain
48°F / 9°C 45°F / 7°C 87% 30.21 in
(1023 mb)
SE 6.9 mph
(SE 11 kph)
0.00 in
(0.00 mm)
10SM
10:56
Overcast
Light Rain
48°F / 9°C 45°F / 7°C 87% 30.21 in
(1023 mb)
ESE 4.6 mph
(ESE 7 kph)
0.02 in
(0.51 mm)
10SM
09:56
Overcast
Light Rain
48°F / 9°C 43°F / 6°C 82% 30.24 in
(1024 mb)
ESE 6.9 mph
(ESE 11 kph)
0.03 in
(0.76 mm)
9SM
08:56
Overcast
Light Rain
48°F / 9°C 43°F / 6°C 82% 30.27 in
(1025 mb)
SE 5.8 mph
(SE 9 kph)
0.01 in
(0.25 mm)
10SM
07:56
Overcast
Light Rain
48°F / 9°C 41°F / 5°C 76% 30.24 in
(1024 mb)
SE 6.9 mph
(SE 11 kph)
0.00 in
(0.00 mm)
10SM
06:56
Overcast
48°F / 9°C 41°F / 5°C 76% 30.24 in
(1024 mb)
SE 8.1 mph
(SE 13 kph)
- 10SM
05:56
Overcast
46°F / 8°C 39°F / 4°C 76% 30.24 in
(1024 mb)
Calm - 10SM
04:56
Overcast
45°F / 7°C 39°F / 4°C 81% 30.24 in
(1024 mb)
NE 3.5 mph
(NE 6 kph)
- 10SM
03:56
Partly Cloudy
45°F / 7°C 37°F / 3°C 76% 30.21 in
(1023 mb)
NE 3.5 mph
(NE 6 kph)
- 10SM
02:56
Clear
45°F / 7°C 39°F / 4°C 81% 30.21 in
(1023 mb)
Calm - 10SM
01:56
Clear
46°F / 8°C 39°F / 4°C 76% 30.21 in
(1023 mb)
SE 3.5 mph
(SE 6 kph)
- 10SM
00:56
Clear
45°F / 7°C 39°F / 4°C 81% 30.24 in
(1024 mb)
Calm - 10SM
Time Weather Temperature Dewpoint Humidity Pressure Winds Precip Visibility


Weather for websites

WeatherForYou.com, LLC is not responsible for any damages or problems caused by this service. Current weather conditions are obtained from the closest station including government and personal stations which may have varying degrees of accuracy. Weather forecasts are derived from the NOAA NDFD. Like all things, this site belongs to Jesus Christ... He just trusts us to maintain it. If you have any questions or comments email webmaster@weatherforyou.com

Copyright © 2016, WeatherForYou.com LLC. All rights reserved.